TimeCDT,TemperatureF,Dew PointF,Humidity,Sea Level PressureIn,VisibilityMPH,Wind Direction,Wind SpeedMPH,Gust SpeedMPH,PrecipitationIn,Events,Conditions,WindDirDegrees,DateUTC
12:15 AM,39.7,36.9,89,30.14,10.0,Calm,Calm,-,N/A,,Clear,0,2012-10-09 05:15:00
12:55 AM,41.0,36.7,85,30.13,10.0,Calm,Calm,-,N/A,,Clear,0,2012-10-09 05:55:00
1:15 AM,39.4,36.5,89,30.13,10.0,Calm,Calm,-,N/A,,Clear,0,2012-10-09 06:15:00
1:55 AM,39.6,36.5,89,30.14,10.0,Calm,Calm,-,N/A,,Clear,0,2012-10-09 06:55:00
2:35 AM,39.4,36.7,90,30.13,10.0,South,3.5,-,N/A,,Clear,170,2012-10-09 07:35:00
2:55 AM,40.3,36.7,87,30.13,10.0,South,3.5,-,N/A,,Clear,170,2012-10-09 07:55:00
3:15 AM,39.6,36.5,89,30.12,10.0,South,3.5,-,N/A,,Clear,170,2012-10-09 08:15:00
3:35 AM,40.3,36.9,88,30.13,10.0,Calm,Calm,-,N/A,,Clear,0,2012-10-09 08:35:00
3:55 AM,39.9,36.7,88,30.13,10.0,Calm,Calm,-,N/A,,Clear,0,2012-10-09 08:55:00
4:15 AM,38.3,36.0,91,30.12,10.0,Calm,Calm,-,N/A,,Clear,0,2012-10-09 09:15:00
4:35 AM,38.5,37.2,95,30.12,10.0,Calm,Calm,-,N/A,,Clear,0,2012-10-09 09:35:00
4:55 AM,39.0,37.4,94,30.13,10.0,Calm,Calm,-,N/A,,Clear,0,2012-10-09 09:55:00
5:15 AM,38.1,38.1,100,30.13,10.0,Calm,Calm,-,N/A,,Clear,0,2012-10-09 10:15:00
5:35 AM,38.1,37.2,97,30.12,10.0,Calm,Calm,-,N/A,,Clear,0,2012-10-09 10:35:00
5:55 AM,37.4,37.4,100,30.12,10.0,Calm,Calm,-,N/A,,Clear,0,2012-10-09 10:55:00
6:15 AM,37.4,37.4,100,30.12,10.0,Calm,Calm,-,N/A,,Clear,0,2012-10-09 11:15:00
6:35 AM,37.4,36.7,97,30.12,10.0,Calm,Calm,-,N/A,,Clear,0,2012-10-09 11:35:00
6:55 AM,39.0,38.7,99,30.13,10.0,Calm,Calm,-,N/A,,Clear,0,2012-10-09 11:55:00
7:15 AM,39.7,38.7,96,30.13,10.0,South,3.5,-,N/A,,Clear,180,2012-10-09 12:15:00
7:35 AM,41.4,40.6,97,30.13,10.0,SSE,4.6,-,N/A,,Clear,160,2012-10-09 12:35:00
7:55 AM,44.8,42.3,91,30.13,10.0,South,5.8,-,N/A,,Clear,170,2012-10-09 12:55:00
8:15 AM,46.8,41.0,80,30.13,10.0,South,6.9,-,N/A,,Clear,180,2012-10-09 13:15:00
8:35 AM,48.0,41.0,77,30.14,10.0,South,6.9,-,N/A,,Clear,170,2012-10-09 13:35:00
8:55 AM,50.5,41.9,72,30.14,10.0,SSE,6.9,-,N/A,,Clear,160,2012-10-09 13:55:00
9:15 AM,52.9,43.0,69,30.14,10.0,SSE,5.8,-,N/A,,Clear,160,2012-10-09 14:15:00
9:35 AM,55.6,43.3,63,30.14,10.0,SSE,6.9,-,N/A,,Clear,160,2012-10-09 14:35:00
9:55 AM,57.7,43.9,60,30.13,10.0,SSW,9.2,-,N/A,,Clear,200,2012-10-09 14:55:00
10:15 AM,59.0,43.0,55,30.13,10.0,South,9.2,-,N/A,,Clear,190,2012-10-09 15:15:00
10:35 AM,60.4,43.3,53,30.12,10.0,South,13.8,17.3,N/A,,Clear,170,2012-10-09 15:35:00
10:55 AM,61.0,43.0,52,30.12,10.0,South,18.4,-,N/A,,Clear,170,2012-10-09 15:55:00
11:15 AM,61.7,42.1,49,30.11,10.0,South,12.7,18.4,N/A,,Clear,180,2012-10-09 16:15:00
11:35 AM,62.2,41.5,47,30.09,10.0,South,17.3,24.2,N/A,,Clear,180,2012-10-09 16:35:00
11:55 AM,62.8,41.9,46,30.09,10.0,South,13.8,23.0,N/A,,Clear,170,2012-10-09 16:55:00
12:15 PM,64.2,42.8,46,30.08,10.0,South,12.7,19.6,N/A,,Clear,190,2012-10-09 17:15:00
12:35 PM,63.9,42.1,45,30.06,10.0,SSW,13.8,-,N/A,,Clear,200,2012-10-09 17:35:00
12:55 PM,64.6,42.3,44,30.05,10.0,SSE,12.7,20.7,N/A,,Clear,160,2012-10-09 17:55:00
1:15 PM,65.3,42.3,43,30.03,10.0,SSW,11.5,19.6,N/A,,Clear,200,2012-10-09 18:15:00
1:35 PM,64.9,41.4,42,30.02,10.0,SSE,12.7,18.4,N/A,,Clear,160,2012-10-09 18:35:00
1:55 PM,65.5,41.5,42,30.02,10.0,SSE,15.0,19.6,N/A,,Clear,160,2012-10-09 18:55:00
2:15 PM,66.0,42.4,42,30.01,10.0,South,11.5,21.9,N/A,,Clear,190,2012-10-09 19:15:00
2:35 PM,66.4,42.4,42,30.01,10.0,South,16.1,20.7,N/A,,Clear,180,2012-10-09 19:35:00
2:55 PM,66.2,42.1,41,30.01,10.0,South,15.0,20.7,N/A,,Clear,170,2012-10-09 19:55:00
3:15 PM,66.7,42.4,41,29.99,10.0,South,11.5,-,N/A,,Clear,190,2012-10-09 20:15:00
3:35 PM,66.4,42.3,41,29.98,10.0,SSE,13.8,19.6,N/A,,Clear,160,2012-10-09 20:35:00
3:55 PM,66.0,41.7,41,29.98,10.0,South,13.8,-,N/A,,Clear,190,2012-10-09 20:55:00
4:15 PM,66.2,41.9,41,29.98,10.0,South,15.0,18.4,N/A,,Clear,180,2012-10-09 21:15:00
4:35 PM,65.7,41.9,42,29.97,10.0,South,11.5,17.3,N/A,,Clear,170,2012-10-09 21:35:00
4:55 PM,65.3,42.1,43,29.98,10.0,South,16.1,21.9,N/A,,Clear,190,2012-10-09 21:55:00
5:15 PM,64.4,42.4,45,29.97,10.0,South,8.1,-,N/A,,Clear,170,2012-10-09 22:15:00
5:35 PM,63.3,42.6,47,29.97,10.0,South,10.4,-,N/A,,Clear,180,2012-10-09 22:35:00
5:55 PM,61.7,43.2,51,29.97,10.0,South,8.1,-,N/A,,Clear,170,2012-10-09 22:55:00
6:15 PM,58.6,43.9,58,29.97,7.0,South,4.6,-,N/A,,Clear,170,2012-10-09 23:15:00
6:35 PM,56.3,43.7,63,29.96,10.0,SSE,5.8,-,N/A,,Clear,150,2012-10-09 23:35:00
6:55 PM,55.6,43.7,64,29.96,10.0,SSE,4.6,-,N/A,,Clear,150,2012-10-09 23:55:00
7:15 PM,54.5,43.9,67,29.97,10.0,SSE,5.8,-,N/A,,Clear,160,2012-10-10 00:15:00
7:35 PM,51.1,43.2,74,29.97,10.0,South,3.5,-,N/A,,Clear,180,2012-10-10 00:35:00
7:55 PM,50.0,43.2,77,29.97,10.0,South,4.6,-,N/A,,Clear,170,2012-10-10 00:55:00
8:15 PM,49.6,43.0,78,29.98,10.0,South,4.6,-,N/A,,Clear,180,2012-10-10 01:15:00
8:35 PM,50.2,43.7,78,29.99,10.0,SSW,4.6,-,N/A,,Clear,200,2012-10-10 01:35:00
8:55 PM,48.9,43.0,80,29.98,10.0,South,4.6,-,N/A,,Clear,180,2012-10-10 01:55:00
9:15 PM,49.5,43.7,81,29.98,10.0,South,6.9,-,N/A,,Clear,170,2012-10-10 02:15:00
9:35 PM,50.9,44.8,80,29.98,10.0,South,6.9,-,N/A,,Clear,180,2012-10-10 02:35:00
9:55 PM,51.6,45.1,79,29.97,10.0,South,6.9,-,N/A,,Clear,170,2012-10-10 02:55:00
10:15 PM,52.0,45.5,79,29.97,10.0,South,9.2,-,N/A,,Clear,170,2012-10-10 03:15:00
10:35 PM,52.7,45.5,76,29.97,10.0,South,8.1,-,N/A,,Clear,190,2012-10-10 03:35:00
10:55 PM,53.1,45.7,76,29.96,10.0,South,6.9,-,N/A,,Clear,180,2012-10-10 03:55:00
11:15 PM,53.6,46.4,77,29.96,10.0,South,6.9,-,N/A,,Clear,170,2012-10-10 04:15:00
11:35 PM,54.0,45.5,73,29.96,10.0,SSW,6.9,-,N/A,,Clear,200,2012-10-10 04:35:00
11:55 PM,54.3,45.7,73,29.96,10.0,SSW,8.1,-,N/A,,Mostly Cloudy,200,2012-10-10 04:55:00